This demonstration page uses our WeatherBlox Daily Observations layout. Learn more.

Left ArrowRight Arrow

34.74481, -87.66753

Hourly Observations for February 20, 2021

Temp ( °F °C ) Dew Point ( °F °C ) Humidity (%) Winds ( mph kmh ) Pressure ( in mb ) Visibility ( mi km ) Precip ( " mm )
12:53 am 00:53 Clear 24 -4.4 15 -9.4 68 68 Calm 30.42 1030 10 16 0.00 0.00
1:53 am 01:53 Clear 20 -6.7 15 -9.4 81 81 Calm 30.42 1030 7 11 0.00 0.00
2:53 am 02:53 Hazy 19 -7.2 13 -10.6 77 77 SSE 3 6 30.42 1030 3 5 0.00 0.00
3:53 am 03:53 Hazy 19 -7.2 13 -10.6 77 77 Calm 30.41 1030 3 5 0.00 0.00
4:34 am 04:34 Hazy 17 -8.3 12 -11.1 80 80 SE 3 6 30.45 1031 3 4 0.00 0.00
4:41 am 04:41 Hazy 17 -8.3 12 -11.1 80 80 Calm 30.45 1031 3 5 0.00 0.00
4:53 am 04:53 Hazy 18 -7.8 12 -11.1 77 77 Calm 30.41 1030 3 5 0.00 0.00
5:04 am 05:04 Hazy 18 -7.8 12 -11.1 77 77 E 3 6 30.44 1031 3 4 0.00 0.00
5:19 am 05:19 Hazy 17 -8.3 12 -11.1 80 80 Calm 30.44 1031 3 5 0.00 0.00
5:53 am 05:53 Hazy 18 -7.8 12 -11.1 77 77 Calm 30.42 1030 4 6 0.00 0.00
6:15 am 06:15 Hazy 17 -8.3 10 -12.2 74 74 Calm 30.46 1031 3 4 0.00 0.00
6:43 am 06:43 Hazy 16 -8.9 9 -12.8 74 74 Calm 30.47 1032 3 5 0.00 0.00
6:53 am 06:53 Hazy 17 -8.3 11 -11.7 77 77 Calm 30.44 1031 3 5 0.00 0.00
7:01 am 07:01 Hazy 16 -8.9 11 -11.7 80 80 Calm 30.47 1032 3 4 0.00 0.00
7:53 am 07:53 Hazy 20 -6.7 15 -9.4 81 81 Calm 30.46 1032 3 4 0.00 0.00
8:34 am 08:34 Sunny with Mist and Fog 25 -3.9 22 -5.6 88 88 Calm 30.49 1032 3 5 0.00 0.00
8:53 am 08:53 Hazy 28 -2.2 22 -5.6 78 78 ENE 5 7 30.46 1032 5 8 0.00 0.00
9:53 am 09:53 Hazy 31 -0.6 22 -5.6 69 69 SSW 3 6 30.47 1032 6 10 0.00 0.00
10:53 am 10:53 Sunny 35 1.7 21 -6.1 57 57 Calm 30.46 1032 8 13 0.00 0.00
11:53 am 11:53 Sunny 36 2.2 21 -6.1 55 55 Calm 30.45 1031 10 16 0.00 0.00
12:53 pm 12:53 Sunny 40 4.4 17 -8.3 40 40 Calm 30.42 1030 10 16 0.00 0.00
1:53 pm 13:53 Sunny 40 4.4 19 -7.2 43 43 ESE 3 6 30.40 1029 10 16 0.00 0.00
2:53 pm 14:53 Sunny 42 5.6 19 -7.2 40 40 ENE 3 6 30.39 1029 10 16 0.00 0.00
3:53 pm 15:53 Sunny 44 6.7 21 -6.1 40 40 E 3 6 30.37 1029 10 16 0.00 0.00
4:53 pm 16:53 Sunny 43 6.1 23 -5 45 45 E 5 7 30.37 1029 10 16 0.00 0.00
5:53 pm 17:53 Clear 42 5.6 20 -6.7 41 41 NE 6 9 30.38 1029 10 16 0.00 0.00
6:53 pm 18:53 Clear 35 1.7 21 -6.1 57 57 E 3 6 30.39 1029 10 16 0.00 0.00
7:53 pm 19:53 Clear 33 0.6 21 -6.1 61 61 Calm 30.39 1029 10 16 0.00 0.00
8:53 pm 20:53 Clear 31 -0.6 21 -6.1 67 67 Calm 30.39 1029 10 16 0.00 0.00
9:53 pm 21:53 Clear 30 -1.1 20 -6.7 66 66 Calm 30.38 1029 10 16 0.00 0.00
10:53 pm 22:53 Clear 29 -1.7 20 -6.7 69 69 Calm 30.38 1029 10 16 0.00 0.00
11:53 pm 23:53 Clear 28 -2.2 20 -6.7 72 72 Calm 30.37 1029 10 16 0.00 0.00

Powered by AerisWeather